Temp
62 63 66 69 68 68 68 68 67 67 67 67 67 66 66 66 66 66 66 66 66 66 66 66 67 67 68 67 67 66 59 60
60 59 60 59 59 68 68 67 67 67 67 67 66 66 66 66 66 66 66 66 66 66 66 66 66 66 67 67 66 65 58 59
58 58 58 58 58 61 67 68 67 67 66 67 64 56 56 59 63 65 66 66 66 66 66 66 66 63 65 66 64 56 56 57
58 59 59 58 63 59 57 59 58 57 57 56 54 54 54 60 61 65 66 67 66 66 66 66 61 53 57 59 54 56 56 56
63 62 62 61 61 60 59 55 54 55 56 55 53 55 52 53 53 54 53 59 55 56 55 54 54 53 53 53 54 54 53 54
65 63 60 59 58 57 60 58 58 54 53 54 51 51 51 51 51 52 52 51 52 52 52 54 54 55 55 54 55 53 51 53
61 60 58 57 56 56 55 58 55 55 54 54 56 52 53 52 52 51 51 51 51 52 53 55 54 54 55 56 56 55 53 52
59 58 58 57 56 55 54 53 54 54 56 58 57 56 55 52 51 52 51 51 51 51 52 52 54 55 54 55 56 55 55 53
58 58 57 56 56 54 53 54 55 54 54 55 56 55 53 52 51 51 52 52 52 51 52 52 55 53 54 55 54 54 54 54
58 61 58 56 54 53 54 54 53 53 53 53 56 57 56 53 53 54 55 51 51 51 51 51 52 52 57 58 59 54 54 54
57 56 54 54 54 54 54 54 53 52 52 52 53 54 56 54 53 54 55 54 55 54 52 50 49 50 52 51 54 52 53 59
57 56 55 54 53 52 52 51 49 49 49 50 51 50 51 49 49 49 51 51 51 52 53 53 52 51 53 52 50 50 50 52
53 52 50 51 50 48 48 47 47 46 48 49 49 49 49 46 45 45 45 45 45 47 49 50 51 52 50 52 48 50 50 51
49 49 48 47 47 46 46 45 45 45 46 46 47 47 47 48 43 42 42 42 42 42 42 45 47 48 48 45 43 45 47 50
47 46 45 45 46 45 44 43 43 43 42 42 44 46 46 44 43 42 41 41 40 39 40 40 40 44 47 46 43 42 47 47
45 46 44 45 43 41 41 40 39 40 40 40 41 43 43 44 43 41 40 40 39 39 43 40 40 38 40 46 47 45 41 42
42 43 43 43 42 41 39 38 39 40 40 40 40 40 41 42 41 39 38 38 38 38 38 39 40 42 42 41 40 41 46 45
41 41 41 41 41 41 39 38 38 38 39 38 38 38 38 39 40 37 36 36 36 36 36 36 37 38 41 42 41 40 41 43
42 41 40 41 40 40 39 39 38 38 38 37 36 36 36 36 36 36 35 36 36 36 35 35 35 35 35 37 41 41 42 42
42 41 41 41 40 40 40 39 38 38 38 36 35 35 35 36 36 36 36 36 36 35 34 34 34 35 36 34 36 38 42 42
MSLP
1019.72 1019.79 1019.82 1019.90 1019.94 1020.08 1020.17 1020.29 1020.50 1020.54 1020.61 1020.60 1020.60 1020.59 1020.50 1020.36 1020.23 1020.10 1020.05 1020.03 1019.99 1019.98 1019.97 1019.98 1019.86 1019.81 1019.62 1019.24 1019.24 1019.41 1019.60 1019.71
1020.07 1020.14 1020.16 1020.30 1020.33 1020.27 1020.33 1020.41 1020.54 1020.65 1020.73 1020.72 1020.73 1020.72 1020.60 1020.45 1020.34 1020.23 1020.11 1020.01 1020.02 1020.07 1020.13 1020.11 1020.10 1019.95 1019.75 1019.58 1019.63 1019.68 1019.92 1019.95
1020.23 1020.37 1020.37 1020.38 1020.45 1020.44 1020.35 1020.44 1020.56 1020.66 1020.69 1020.74 1020.76 1020.91 1020.84 1020.66 1020.52 1020.37 1020.24 1020.16 1020.05 1020.03 1020.04 1020.06 1020.18 1020.24 1020.02 1019.86 1019.90 1020.07 1020.21 1020.28
1019.99 1019.98 1020.27 1020.45 1020.37 1020.35 1020.40 1020.47 1020.59 1020.73 1020.82 1020.92 1020.97 1020.97 1020.95 1020.67 1020.52 1020.36 1020.17 1020.18 1020.10 1020.10 1019.97 1019.97 1020.17 1020.31 1020.27 1020.14 1020.16 1020.19 1020.31 1020.37
1019.71 1019.72 1020.08 1020.22 1020.33 1020.26 1020.35 1020.52 1020.60 1020.66 1020.67 1020.77 1020.86 1020.85 1020.90 1020.73 1020.62 1020.50 1020.37 1020.39 1020.43 1020.30 1020.26 1020.13 1020.11 1020.35 1020.32 1020.21 1020.27 1020.35 1020.46 1020.43
1019.07 1019.44 1019.95 1020.01 1020.16 1020.18 1020.00 1020.17 1020.24 1020.38 1020.50 1020.44 1020.78 1020.83 1020.73 1020.73 1020.53 1020.29 1020.28 1020.34 1020.44 1020.51 1020.40 1020.30 1020.16 1020.03 1020.21 1020.29 1020.19 1020.34 1020.49 1020.47
1019.16 1019.30 1019.80 1020.10 1020.21 1020.16 1020.22 1020.17 1020.15 1020.21 1020.19 1020.22 1020.31 1020.50 1020.52 1020.57 1020.28 1020.09 1020.04 1020.12 1020.20 1020.28 1020.21 1020.20 1020.21 1020.05 1019.94 1019.97 1020.11 1019.96 1020.18 1020.34
1019.11 1019.22 1019.44 1019.80 1020.01 1019.99 1020.02 1020.20 1020.10 1020.04 1020.04 1020.02 1020.11 1020.11 1020.13 1020.42 1020.28 1020.01 1019.95 1019.86 1019.77 1019.83 1019.80 1019.85 1019.81 1019.84 1019.98 1020.00 1019.81 1019.76 1019.72 1019.98
1018.83 1018.94 1019.17 1019.53 1019.76 1020.15 1020.24 1020.13 1020.06 1020.24 1020.22 1020.00 1019.80 1019.78 1019.89 1020.05 1020.08 1020.01 1019.72 1019.55 1019.48 1019.60 1019.53 1019.56 1019.64 1019.54 1019.54 1019.54 1019.78 1019.69 1019.58 1019.40
1018.55 1018.75 1019.10 1019.44 1019.99 1020.04 1019.95 1019.86 1019.90 1020.07 1019.99 1019.80 1019.57 1019.45 1019.39 1019.41 1019.44 1019.19 1019.07 1019.39 1019.62 1019.76 1019.83 1019.63 1019.43 1019.40 1019.26 1018.85 1018.80 1019.20 1019.42 1019.52
1018.53 1019.14 1019.58 1019.95 1019.97 1019.99 1020.03 1020.16 1020.41 1020.36 1020.27 1020.09 1019.87 1019.63 1019.23 1019.34 1019.33 1019.21 1018.96 1018.81 1018.87 1019.12 1019.36 1019.64 1019.55 1019.22 1019.07 1018.93 1018.90 1018.77 1018.90 1018.81
1019.05 1019.41 1019.73 1019.88 1020.12 1020.21 1020.29 1020.65 1020.95 1020.86 1020.81 1020.60 1020.25 1020.04 1019.89 1019.86 1019.76 1019.49 1019.10 1019.16 1019.07 1018.88 1018.78 1019.00 1019.04 1019.01 1018.87 1018.73 1018.69 1018.63 1018.54 1018.67
1019.76 1019.84 1020.23 1020.20 1020.44 1020.87 1021.00 1021.33 1021.45 1021.47 1021.31 1021.17 1020.96 1020.75 1020.57 1020.57 1020.56 1020.46 1020.31 1020.08 1019.85 1019.53 1018.95 1018.75 1018.60 1018.29 1018.95 1018.25 1018.34 1018.26 1018.17 1017.85
1020.42 1020.71 1020.92 1021.06 1021.17 1021.49 1021.59 1021.62 1021.76 1021.85 1021.77 1021.68 1021.42 1021.24 1021.16 1020.97 1021.08 1020.98 1020.78 1020.51 1020.20 1019.95 1019.63 1019.16 1018.66 1018.30 1018.51 1018.61 1018.36 1018.06 1017.74 1017.33
1021.04 1021.52 1021.76 1021.78 1021.84 1021.87 1021.90 1021.92 1021.98 1022.17 1022.21 1022.09 1021.86 1021.69 1021.54 1021.40 1021.23 1021.11 1020.98 1020.79 1020.56 1020.27 1020.01 1019.78 1019.44 1018.68 1018.51 1018.49 1018.09 1017.70 1017.45 1016.89
1021.44 1021.90 1022.01 1022.07 1022.15 1022.17 1022.20 1022.22 1022.30 1022.39 1022.30 1022.22 1022.01 1021.79 1021.68 1021.46 1021.30 1021.17 1021.03 1020.88 1020.76 1020.46 1020.08 1019.99 1019.80 1019.43 1018.87 1018.38 1018.02 1017.70 1017.05 1016.83
1021.83 1022.04 1022.17 1022.34 1022.32 1022.27 1022.35 1022.45 1022.43 1022.36 1022.32 1022.18 1022.09 1021.90 1021.74 1021.56 1021.36 1021.24 1021.10 1020.95 1020.79 1020.51 1020.18 1020.04 1019.76 1019.46 1019.04 1018.88 1018.48 1017.79 1017.13 1016.87
1022.14 1022.40 1022.60 1022.50 1022.41 1022.39 1022.41 1022.55 1022.53 1022.48 1022.32 1022.17 1022.02 1021.85 1021.63 1021.45 1021.25 1021.15 1020.97 1020.85 1020.66 1020.39 1020.17 1019.94 1019.71 1019.45 1019.03 1018.70 1018.50 1018.24 1017.45 1016.95
1022.38 1022.67 1022.62 1022.46 1022.34 1022.29 1022.33 1022.40 1022.40 1022.43 1022.26 1022.18 1022.04 1021.86 1021.53 1021.25 1021.11 1020.93 1020.74 1020.46 1020.21 1020.04 1020.00 1019.80 1019.57 1019.40 1019.09 1018.84 1018.43 1017.99 1017.88 1017.42
1022.28 1022.65 1022.42 1022.33 1022.27 1022.21 1022.14 1022.25 1022.26 1022.19 1022.09 1021.94 1021.82 1021.65 1021.38 1021.06 1020.87 1020.62 1020.32 1020.07 1019.82 1019.62 1019.64 1019.49 1019.30 1019.11 1018.90 1018.75 1018.48 1018.06 1017.59 1017.28
Wind_Speed
4 3 4 5 5 5 4 4 4 3 3 2 0 1 2 2 2 1 2 3 4 5 6 6 6 7 7 4 8 10 5 4
4 3 2 1 1 5 5 4 4 4 4 3 3 3 3 4 4 4 3 3 3 4 5 6 7 8 8 6 9 9 4 4
4 4 5 5 4 3 4 4 5 5 5 5 4 2 4 5 6 6 7 7 6 5 5 3 5 7 8 6 4 2 3 2
7 7 5 4 3 4 3 3 1 2 3 3 3 3 4 5 8 9 9 8 8 8 7 6 4 1 1 4 1 4 3 3
6 5 4 5 4 2 2 2 2 3 5 5 4 3 3 4 3 3 3 7 4 4 5 4 3 1 2 2 2 2 1 1
8 7 6 7 3 3 3 3 4 3 4 6 3 3 4 4 4 4 4 3 5 4 3 5 6 5 3 3 4 4 3 2
6 7 6 4 5 4 2 3 3 4 3 5 4 4 5 4 5 3 4 3 4 5 4 4 5 5 5 4 5 4 6 3
6 7 7 6 6 5 4 2 3 3 3 4 4 5 4 4 4 4 5 4 4 5 5 5 5 4 5 6 6 6 6 6
9 8 6 6 5 2 1 2 2 3 4 5 5 5 6 5 4 4 5 4 5 4 5 4 4 4 7 5 4 5 5 7
8 6 7 4 1 1 2 3 3 3 4 4 5 5 6 5 4 5 3 2 2 3 3 4 4 4 6 6 7 5 6 6
5 3 5 2 2 1 3 5 4 4 4 5 8 6 4 3 3 5 4 3 5 4 3 4 4 4 4 5 4 4 5 5
5 4 1 1 1 3 3 5 4 4 5 6 8 7 8 6 6 7 8 4 4 3 5 5 5 4 3 4 4 5 4 5
7 8 7 5 5 3 3 3 2 4 4 7 8 8 8 8 5 6 6 5 5 5 3 4 4 4 3 5 4 6 7 5
8 8 8 6 4 2 1 1 2 3 3 5 6 7 7 6 5 4 5 4 5 5 5 3 2 3 3 2 3 4 4 7
8 7 7 5 4 2 2 2 2 3 3 3 4 5 5 5 5 5 5 4 4 4 4 4 2 3 4 4 2 5 1 1
8 7 6 6 4 4 4 2 2 1 0 0 2 3 3 3 4 5 5 3 5 4 3 2 2 3 4 3 7 4 4 4
7 7 7 5 5 5 4 3 0 1 1 3 2 3 4 5 5 4 5 4 4 5 5 4 3 4 3 2 3 3 5 6
6 7 5 5 5 5 5 3 3 2 2 3 3 3 3 4 4 4 5 5 5 5 5 6 5 5 5 5 5 4 3 4
6 5 4 3 4 4 3 2 2 3 2 3 4 3 3 5 4 4 4 5 5 5 5 5 5 4 5 4 6 7 8 8
6 4 3 2 2 1 1 2 2 3 3 3 3 3 4 5 6 5 6 6 5 5 3 4 5 5 6 5 5 6 6 6
Wind_Direction
131 123 150 156 154 160 163 181 178 191 204 206 212 272 294 301 296 311 350 357 356 351 357 2 14 25 8 36 117 119 105 100
147 146 149 170 256 199 195 211 210 214 235 246 243 249 261 277 271 292 292 297 315 330 345 0 9 25 20 100 114 111 99 100
172 191 207 198 214 245 222 233 246 256 265 266 254 279 288 289 283 278 294 296 297 301 312 340 3 18 20 40 95 115 129 129
191 205 213 223 229 211 234 244 252 272 277 271 289 269 265 263 263 270 272 280 290 300 300 309 18 57 10 357 63 157 151 143
200 197 214 216 233 226 229 230 237 244 249 241 243 259 261 273 272 271 308 294 302 299 314 315 316 19 80 137 116 160 184 198
195 182 204 222 223 225 210 211 225 236 252 232 221 247 256 256 241 228 239 241 268 272 278 294 297 291 190 182 177 169 189 206
172 164 199 198 205 222 221 227 212 240 251 237 217 235 234 244 251 239 236 230 233 249 250 255 274 275 266 214 195 196 179 192
173 191 202 192 210 216 221 238 271 287 287 272 254 237 239 230 251 242 252 220 237 231 227 234 242 234 263 260 230 206 195 193
187 195 210 214 233 304 346 279 289 265 263 276 279 254 251 260 274 278 269 271 258 253 245 238 247 241 231 232 251 242 233 205
196 196 205 226 348 313 311 300 305 304 311 300 285 249 239 246 239 246 229 222 246 279 295 282 247 232 247 231 225 214 223 250
199 48 43 344 292 328 345 349 5 349 9 18 9 355 350 296 284 289 255 232 228 211 236 218 263 257 246 257 246 222 231 223
84 92 295 236 353 24 35 65 46 32 30 20 15 13 19 22 18 16 2 327 307 279 237 207 216 234 254 272 265 242 215 208
78 81 44 64 48 30 21 23 27 28 28 29 29 24 28 30 22 15 6 8 347 336 281 251 246 224 240 275 270 244 236 214
79 72 59 52 59 52 68 91 88 77 26 28 23 32 32 29 22 10 4 356 360 3 11 319 290 193 223 223 248 284 242 226
102 95 88 74 73 68 44 39 26 31 18 26 20 35 18 22 4 350 347 350 336 336 346 10 328 311 233 240 233 228 232 335
105 113 104 78 71 80 88 112 79 353 224 201 354 9 341 324 326 335 328 332 327 313 324 292 286 270 316 312 282 270 212 254
110 95 78 74 74 79 78 70 126 272 291 343 331 309 316 316 319 310 298 298 294 302 310 303 279 274 234 315 316 307 268 245
103 96 88 72 71 64 70 50 345 341 336 348 327 310 302 309 308 303 295 285 277 273 282 285 280 279 275 261 255 278 320 267
124 115 94 87 85 82 81 42 353 314 314 289 320 318 299 303 306 306 295 280 270 259 265 271 269 265 270 276 281 248 256 277
111 124 123 123 122 137 191 298 288 292 278 285 282 268 278 291 297 299 293 289 285 274 255 257 257 252 262 275 283 277 273 272